| Date | Temp | Humidity | Rainfall | Dew Point | Wind Direction | Wind Speed | Wind Pressure | Condition | Visibility |
|---|---|---|---|---|---|---|---|---|---|
| 2025-05-19 09:59:45 | 29 | 75 | 0.0 | 24 | 160 | 3.0 | 1010 | Partly Cloudy (Day) | 10 KM |
| 2025-05-19 08:59:16 | 27 | 84 | 0.0 | 24 | 120 | 1.0 | 1010 | Shower Day | 10 KM |
| 2025-05-19 07:58:43 | 26 | 89 | 24 | 160 | 5.7 | 1010 | Distant showers | 10 KM | |
| 2025-05-19 06:58:48 | 25 | 93 | 24 | 240 | 3.8 | 1009 | Distant showers | 15 KM | |
| 2025-05-19 05:58:38 | 26 | 89 | 24 | 170 | 7.6 | 1009 | Showers | 10 KM | |
| 2025-05-19 04:59:18 | 26 | 88 | 24 | 210 | 9.5 | 1009 | Partly Cloudy (Night) | 10 KM | |
| 2025-05-19 03:58:23 | 26 | 91 | 24 | 180 | 7.6 | 1009 | Showers | 10 KM | |
| 2025-05-19 02:59:28 | 26 | 93 | 25 | 210 | 5.7 | 1009 | Partly Cloudy (Night) | 10 km | |
| 2025-05-19 02:01:41 | 27 | 91 | 25 | 170 | 5.7 | 1009 | Partly Cloudy (Night) | 10 km | |
| 2025-05-19 00:59:58 | 27 | 89 | 25 | 180 | 5.7 | 1009 | Partly Cloudy (Night) | 10 km | |
| 2025-05-19 00:01:26 | 27 | 87 | 25 | 140 | 1.9 | 1009 | Partly Cloudy (Night) | 10 km | |
| 2025-05-18 23:01:22 | 28 | 86 | 25 | 130 | 1.9 | 1010 | Lightning | 10 km | |
| 2025-05-18 22:00:48 | 28 | 85 | 25 | 110 | 5.7 | 1010 | Lightning | 10 km | |
| 2025-05-18 20:58:33 | 29 | 76 | 0 | 24 | 010 | 3.8 | 1009 | Partly Cloudy (Night) | 10 KM |
| 2025-05-18 19:59:39 | 29 | 77 | 0 | 25 | 350 | 3.8 | 1008 | Partly Cloudy (Night) | 10 KM |
| 2025-05-18 18:58:12 | 29 | 78 | 0 | 25 | 360 | 5.7 | 1008 | Partly Cloudy (Day) | 15 KM |
| 2025-05-18 17:59:27 | 29 | 77 | 0 | 25 | 330 | 11.4 | 1007 | Partly Cloudy (Day) | 20 KM |
| 2025-05-18 16:58:53 | 30 | 72 | 0.0 | 25 | 330 | 13.3 | 1007 | Partly Cloudy (Day) | 20 KM |
| 2025-05-18 15:58:34 | 30 | 73 | 0.0 | 25 | 340 | 13.3 | 1006 | Partly Cloudy (Day) | 20 KM |
| 2025-05-18 14:58:45 | 31 | 76 | 0.0 | 26 | 340 | 15.2 | 1006 | Partly Cloudy (Day) | 20 KM |
| 2025-05-18 13:59:29 | 32 | 63 | 24 | 160 | 5.7 | 1007 | Partly Cloudy (Day) | 20 KM | |
| 2025-05-18 13:00:42 | 31 | 63 | 24 | 160 | 11.4 | 1008 | Partly Cloudy (Day) | 20 km | |
| 2025-05-18 11:58:49 | 31 | 65 | 24 | 160 | 7.6 | 1009 | Partly Cloudy (Day) | 20 km | |
| 2025-05-18 10:59:51 | 30 | 71 | 24 | 130 | 17.1 | 1011 | Partly Cloudy (Day) | 20 km | |
| 2025-05-18 10:03:32 | 29 | 75 | 24 | 140 | 9.5 | 1012 | Partly Cloudy (Day) | 20 km |